Weather History for Hailey, ID

Change the Weather History Date:

Tuesday, July 23, 2013

  Actual Average Record
Temperature  
Mean Temperature 74 °F -  
Max Temperature 98 °F 85 °F 102 °F (2003)
Min Temperature 51 °F 53 °F 44 °F (2011)
Cooling Degree Days 10    
Growing Degree Days 24 (Base 50)    
Moisture  
Dew Point 30 °F    
Average Humidity 26    
Maximum Humidity 43    
Minimum Humidity 13    
Precipitation  
Precipitation 0.00 in - - ()
Sea Level Pressure  
Sea Level Pressure 30.15 in    
Wind  
Wind Speed 11 mph (NW)    
Max Wind Speed 18 mph    
Max Gust Speed 20 mph    
Visibility 9 miles    
Events      
Averages and records for this station are not official NWS values.
T = Trace of Precipitation, MM = Missing Value Source: NWS Daily Summary

Daily Weather History Graph

Daily Weather History Graph

Search for Another Location

Airport:

Trip Planner

Search our weather history database for the weather conditions in past years. The results will help you decide how hot, cold, wet, or windy it might be!

Date:

Astronomy

Jul. 23, 2013 Rise Set
Actual Time 6:17 AM MDT 9:09 PM MDT
Civil Twilight 5:44 AM MDT 9:42 PM MDT
Nautical Twilight 5:01 AM MDT 10:24 PM MDT
Astronomical Twilight 4:11 AM MDT 11:14 PM MDT
Moon 9:34 PM MDT (7/23) 7:35 AM MDT (7/23)
Length of Visible Light 15h 58m
Length of Day
14h 51m
Full, 99% of the Moon is Illuminated
Jul 23
Full
Jul 29
Last Quarter
Aug 6
New
Aug 14
First Quarter
Aug 20
Full

Hourly Weather History & Observations

Time (MDT) Temp. Heat Index Dew Point Humidity Pressure Visibility Wind Dir Wind Speed Gust Speed Precip Events Conditions
12:15 AM 64.4 °F - 26.6 °F 24% 30.12 in 10.0 mi NW 11.5 mph - N/A   Clear
12:35 AM 64.4 °F - 26.6 °F 24% 30.12 in 10.0 mi WNW 10.4 mph - N/A   Clear
12:55 AM 62.6 °F - 26.6 °F 26% 30.13 in 10.0 mi WNW 10.4 mph - N/A   Clear
1:15 AM 62.6 °F - 26.6 °F 26% 30.13 in 10.0 mi WNW 12.7 mph - N/A   Clear
1:35 AM 62.6 °F - 24.8 °F 24% 30.14 in 10.0 mi NW 15.0 mph - N/A   Clear
1:55 AM 62.6 °F - 23.0 °F 22% 30.14 in 10.0 mi NW 13.8 mph 19.6 mph N/A   Clear
2:15 AM 60.8 °F - 24.8 °F 25% 30.14 in 10.0 mi NNW 13.8 mph - N/A   Clear
2:35 AM 60.8 °F - 23.0 °F 23% 30.14 in 10.0 mi NW 18.4 mph - N/A   Clear
2:55 AM 60.8 °F - 23.0 °F 23% 30.14 in 10.0 mi NW 17.3 mph - N/A   Clear
3:15 AM 60.8 °F - 23.0 °F 23% 30.14 in 10.0 mi NNW 17.3 mph - N/A   Clear
3:35 AM 59.0 °F - 24.8 °F 27% 30.15 in 10.0 mi NNW 8.1 mph - N/A   Clear
3:55 AM 55.4 °F - 24.8 °F 31% 30.15 in 10.0 mi NNW 10.4 mph - N/A   Clear
4:15 AM 55.4 °F - 26.6 °F 33% 30.15 in 10.0 mi NW 10.4 mph - N/A   Clear
4:35 AM 55.4 °F - 24.8 °F 31% 30.15 in 10.0 mi WNW 11.5 mph - N/A   Clear
4:55 AM 55.4 °F - 26.6 °F 33% 30.16 in 10.0 mi WNW 10.4 mph - N/A   Clear
5:15 AM 55.4 °F - 24.8 °F 31% 30.16 in 10.0 mi NW 13.8 mph - N/A   Clear
5:35 AM 55.4 °F - 23.0 °F 29% 30.17 in 10.0 mi NW 12.7 mph - N/A   Clear
5:55 AM 53.6 °F - 24.8 °F 33% 30.17 in 10.0 mi WNW 15.0 mph - N/A   Clear
6:15 AM 53.6 °F - 24.8 °F 33% 30.18 in 10.0 mi WNW 11.5 mph - N/A   Clear
6:35 AM 51.8 °F - 26.6 °F 38% 30.18 in 10.0 mi WNW 9.2 mph - N/A   Clear
6:47 AM 51.8 °F - 26.6 °F 38% 30.19 in 7.0 mi WSW 8.1 mph 19.6 mph N/A   Smoke
6:55 AM 51.8 °F - 26.6 °F 38% 30.19 in 10.0 mi West 10.4 mph - N/A   Clear
7:47 AM 57.2 °F - 24.8 °F 29% 30.21 in 7.0 mi WNW 9.2 mph 19.6 mph N/A   Smoke
8:47 AM 62.6 °F - 28.4 °F 27% 30.21 in 7.0 mi NNW 6.9 mph - N/A   Smoke
9:55 AM 71.6 °F - 26.6 °F 19% 30.21 in 7.0 mi NW 4.6 mph - N/A   Smoke
10:47 AM 78.8 °F - 28.4 °F 16% 30.22 in 7.0 mi East 8.1 mph - N/A   Smoke
11:47 AM 80.6 °F - 32.0 °F 17% 30.22 in 7.0 mi ESE 9.2 mph - N/A   Smoke
12:47 PM 82.4 °F - 30.2 °F 15% 30.21 in 7.0 mi ESE 9.2 mph - N/A   Smoke
1:47 PM 84.2 °F - 32.0 °F 15% 30.19 in 7.0 mi SE 6.9 mph - N/A   Smoke
2:47 PM 87.8 °F - 30.2 °F 13% 30.17 in 7.0 mi SE 5.8 mph - N/A   Smoke
3:50 PM 87.8 °F - 35.6 °F 16% 30.15 in 7.0 mi SE 8.1 mph - N/A   Smoke
4:47 PM 89.6 °F - 33.8 °F 14% 30.13 in 7.0 mi ESE 8.1 mph - N/A   Smoke
5:47 PM 86.0 °F - 39.2 °F 19% 30.11 in 7.0 mi SE 12.7 mph - N/A   Smoke
6:47 PM 82.4 °F - 33.8 °F 17% 30.11 in 7.0 mi SE 8.1 mph - N/A   Smoke
7:47 PM 98.6 °F 99.4 °F 60.8 °F 29% 29.82 in 30.0 mi ESE 6.9 mph - N/A   Partly Cloudy
8:47 PM 69.8 °F - 46.4 °F 43% 30.14 in 7.0 mi Calm Calm - N/A   Smoke
9:47 PM 73.4 °F - 37.4 °F 27% 30.16 in 7.0 mi West 3.5 mph - N/A   Smoke
10:47 PM 69.8 °F - 37.4 °F 31% 30.17 in 7.0 mi West 8.1 mph - N/A   Smoke
11:15 PM 68.0 °F - 33.8 °F 28% 30.17 in 10.0 mi WNW 10.4 mph - N/A   Clear
11:35 PM 66.2 °F - 33.8 °F 30% 30.17 in 10.0 mi NW 8.1 mph - N/A   Clear
11:55 PM 64.4 °F - 33.8 °F 32% 30.16 in 10.0 mi NW 10.4 mph - N/A   Clear